Terminal Aerodrome Forecast
Issued by NWS Buffalo, NY

Home | Current Version | Previous Version | Text Only | Print | Product List | Glossary On
Versions: 1 2 3 4 5 6 7 8 9 10 11 12 13 14 15 16 17 18 19 20 21 22 23 24 25 26 27 28
000
FTUS41 KBUF 291400 AAA
TAFBUF
TAF AMD
KBUF 291423Z 2914/3012 23014KT P6SM SCT200
     FM292300 17010KT P6SM BKN150
     FM300200 20015G21KT 5SM -RASN OVC070
     FM300300 21018G29KT 2SM -SN OVC040
     FM300600 22022G35KT P6SM VCSH OVC035
     FM300900 23022G35KT P6SM VCSH OVC025=

USA.gov is the U.S. government's official web portal to all federal, state and local government web resources and services.